Tracking 18794 objects as of 21-September-2017
HD Live streaming from Space Station
objects crossing your sky now

COSMOS 2474 (GLONASS)

Track COSMOS 2474 (GLONASS) now!
COSMOS 2474 (GLONASS) is classified as:


NORAD ID: 37829
Int'l Code: 2011-055A
Perigee: 19,113.6 km
Apogee: 19,160.5 km
Inclination: 64.5 °
Period: 675.7 minutes
Semi major axis: 25508 km
RCS: 3.1623 m2 (large)
Launch date: October 2, 2011
Source: Commonwealth of Independent States (former USSR) (CIS)
Launch site: PLESETSK MISSILE AND SPACE COMPLEX (PKMTR)
SV: 742

COSMOS 2474 is a Glonass M satellite.
aabbcc
Your satellite tracking list
Your tracking list is empty





NASA's NSSDC Master Catalog

Two Line Element Set (TLE):
1 37829U 11055A   17264.23493637 +.00000002 +00000-0 +00000-0 0  9990
2 37829 064.5045 180.8974 0009202 251.1214 239.6736 02.13101964046464
Source of the keplerian elements: AFSPC